TimeCST,TemperatureF,Dew PointF,Humidity,Sea Level PressureIn,VisibilityMPH,Wind Direction,Wind SpeedMPH,Gust SpeedMPH,PrecipitationIn,Events,Conditions,WindDirDegrees,DateUTC
12:56 AM,46.9,42.1,83,30.29,10.0,Calm,Calm,-,N/A,,Partly Cloudy,0,2012-11-30 06:56:00
1:56 AM,46.0,42.1,86,30.29,10.0,NNE,4.6,-,N/A,,Partly Cloudy,30,2012-11-30 07:56:00
2:56 AM,46.9,43.0,86,30.27,10.0,Calm,Calm,-,N/A,,Scattered Clouds,0,2012-11-30 08:56:00
3:56 AM,46.0,43.0,89,30.27,10.0,NE,3.5,-,N/A,,Scattered Clouds,40,2012-11-30 09:56:00
4:56 AM,46.0,43.0,89,30.27,9.0,Calm,Calm,-,N/A,,Scattered Clouds,0,2012-11-30 10:56:00
5:18 AM,46.4,44.6,93,30.28,10.0,Calm,Calm,-,N/A,,Mostly Cloudy,0,2012-11-30 11:18:00
5:56 AM,46.9,43.0,86,30.28,7.0,Calm,Calm,-,N/A,,Mostly Cloudy,0,2012-11-30 11:56:00
6:56 AM,46.9,43.0,86,30.28,7.0,ENE,3.5,-,N/A,,Mostly Cloudy,60,2012-11-30 12:56:00
7:56 AM,51.1,46.9,86,30.29,7.0,ENE,4.6,-,N/A,,Mostly Cloudy,60,2012-11-30 13:56:00
8:56 AM,57.9,48.9,72,30.30,10.0,NNE,3.5,-,N/A,,Scattered Clouds,20,2012-11-30 14:56:00
9:56 AM,64.0,52.0,65,30.30,10.0,Calm,Calm,-,N/A,,Partly Cloudy,0,2012-11-30 15:56:00
10:56 AM,68.0,54.0,61,30.29,10.0,SE,4.6,-,N/A,,Partly Cloudy,130,2012-11-30 16:56:00
11:56 AM,71.1,54.0,55,30.26,10.0,ESE,5.8,-,N/A,,Scattered Clouds,120,2012-11-30 17:56:00
12:56 PM,69.1,53.1,57,30.23,10.0,NE,4.6,-,N/A,,Mostly Cloudy,50,2012-11-30 18:56:00
1:56 PM,72.0,54.0,53,30.21,10.0,East,5.8,-,N/A,,Scattered Clouds,80,2012-11-30 19:56:00
2:56 PM,73.0,53.1,49,30.20,10.0,NNE,3.5,-,N/A,,Scattered Clouds,30,2012-11-30 20:56:00
3:56 PM,70.0,54.0,57,30.20,10.0,NE,5.8,-,N/A,,Scattered Clouds,50,2012-11-30 21:56:00
4:56 PM,66.0,54.0,65,30.21,10.0,Calm,Calm,-,N/A,,Scattered Clouds,0,2012-11-30 22:56:00
5:56 PM,62.1,54.0,75,30.22,10.0,Calm,Calm,-,N/A,,Scattered Clouds,0,2012-11-30 23:56:00
6:56 PM,61.0,54.0,78,30.24,10.0,ESE,3.5,-,N/A,,Scattered Clouds,120,2012-12-01 00:56:00
7:56 PM,57.0,53.1,87,30.25,10.0,Calm,Calm,-,N/A,,Mostly Cloudy,0,2012-12-01 01:56:00
8:56 PM,54.0,52.0,93,30.24,7.0,Calm,Calm,-,N/A,,Scattered Clouds,0,2012-12-01 02:56:00
9:56 PM,52.0,51.1,97,30.24,4.0,Calm,Calm,-,N/A,Fog,Scattered Clouds,0,2012-12-01 03:56:00
10:56 PM,54.0,51.1,90,30.24,6.0,Calm,Calm,-,N/A,Fog,Scattered Clouds,0,2012-12-01 04:56:00
11:56 PM,52.0,50.0,93,30.23,9.0,Calm,Calm,-,N/A,,Scattered Clouds,0,2012-12-01 05:56:00